FW8143 Weather Reports


time (UTC)temp
F
wind
direction
speed
knots
gust
knots
rain 1hr
in
rain 24hr
in
rain mn
in
humidity
%
barometer
mb
20260503231849 68 274 7.8 15.6 0.00 0.00 0.00 22 1022.9
20260503231343 68 250 7.0 15.6 0.00 0.00 0.00 22 1022.9
20260503230838 68 183 5.2 11.3 0.00 0.00 0.00 22 1023.0
20260503230331 68 222 6.1 13.0 0.00 0.00 0.00 22 1023.0
20260503225825 68 321 7.8 15.6 0.00 0.00 0.00 22 1023.0
20260503225537 69 281 7.0 15.6 0.00 0.00 0.00 21 1023.2
20260503224813 69 263 6.1 14.8 0.00 0.00 0.00 21 1023.2
20260503224307 69 213 7.0 14.8 0.00 0.00 0.00 21 1023.3
20260503223802 69 190 5.2 12.2 0.00 0.00 0.00 21 1023.5
20260503223255 69 211 6.1 15.6 0.00 0.00 0.00 21 1023.4
20260503222749 69 193 6.1 15.6 0.00 0.00 0.00 20 1023.4
20260503222243 69 250 7.0 14.8 0.00 0.00 0.00 20 1023.5
20260503221737 70 38 6.1 14.8 0.00 0.00 0.00 20 1023.5
20260503221231 70 260 6.1 15.6 0.00 0.00 0.00 20 1023.5
20260503220725 69 198 5.2 15.6 0.00 0.00 0.00 20 1023.7
20260503220219 69 242 5.2 11.3 0.00 0.00 0.00 21 1023.7
20260503215713 69 223 5.2 13.9 0.00 0.00 0.00 21 1023.8
20260503215208 69 240 5.2 13.0 0.00 0.00 0.00 20 1023.8
20260503214701 69 267 7.0 14.8 0.00 0.00 0.00 20 1023.9
20260503214155 69 232 7.0 14.8 0.00 0.00 0.00 20 1024.0
20260503213649 68 217 7.0 14.8 0.00 0.00 0.00 21 1024.0
20260503213150 67 254 7.8 17.4 0.00 0.00 0.00 21 1024.3
20260503212650 67 268 7.0 17.4 0.00 0.00 0.00 22 1024.3
20260503212148 67 196 7.0 15.6 0.00 0.00 0.00 22 1024.4
20260503211906 68 271 7.0 15.6 0.00 0.00 0.00 21 1024.4
20260503211149 69 250 4.3 11.3 0.00 0.00 0.00 21 1024.4
20260503210647 69 271 6.1 11.3 0.00 0.00 0.00 22 1024.7
20260503210147 69 243 7.0 12.2 0.00 0.00 0.00 22 1024.8
20260503205648 69 322 7.0 14.8 0.00 0.00 0.00 21 1024.8
20260503205146 69 229 7.0 14.8 0.00 0.00 0.00 21 1024.8
20260503204908 69 248 7.0 15.6 0.00 0.00 0.00 21 1024.9
20260503204145 69 211 7.0 15.6 0.00 0.00 0.00 21 1025.0
20260503203646 69 223 4.3 10.4 0.00 0.00 0.00 22 1025.2
20260503203146 69 227 6.1 12.2 0.00 0.00 0.00 21 1025.2
20260503202907 69 169 6.1 12.2 0.00 0.00 0.00 21 1025.3
20260503202145 69 263 6.1 11.3 0.00 0.00 0.00 22 1025.3
20260503201646 68 240 7.0 11.3 0.00 0.00 0.00 23 1025.4
20260503201146 68 208 6.1 12.2 0.00 0.00 0.00 23 1025.7
20260503200646 67 244 6.1 13.0 0.00 0.00 0.00 22 1025.7
20260503200405 67 198 6.1 13.0 0.00 0.00 0.00 23 1025.7
20260503195646 67 215 6.1 13.0 0.00 0.00 0.00 24 1025.8
20260503195145 67 244 6.1 13.0 0.00 0.00 0.00 24 1025.8
20260503194646 67 212 6.1 16.5 0.00 0.00 0.00 24 1025.9
20260503194146 67 236 7.0 16.5 0.00 0.00 0.00 25 1026.0
20260503193910 67 252 3.5 13.0 0.00 0.00 0.00 25 1026.0
20260503193146 66 335 2.6 9.6 0.00 0.00 0.00 25 1026.0
20260503192906 66 219 2.6 9.6 0.00 0.00 0.00 22 1026.0
20260503192146 66 290 3.5 9.6 0.00 0.00 0.00 23 1026.2
20260503191909 66 272 5.2 12.2 0.00 0.00 0.00 22 1026.4
20260503191142 66 227 4.3 12.2 0.00 0.00 0.00 22 1026.3
20260503190641 65 259 3.5 11.3 0.00 0.00 0.00 21 1026.5
20260503190142 65 288 5.2 11.3 0.00 0.00 0.00 24 1026.5
20260503185909 65 332 5.2 9.6 0.00 0.00 0.00 25 1026.7
20260503185141 64 257 4.3 13.0 0.00 0.00 0.00 26 1026.8
20260503184642 64 251 5.2 13.0 0.00 0.00 0.00 25 1026.9
20260503184143 64 72 6.1 13.9 0.00 0.00 0.00 25 1027.2
20260503183643 63 199 6.1 13.9 0.00 0.00 0.00 25 1027.2
20260503183138 62 232 5.2 13.0 0.00 0.00 0.00 25 1027.3
20260503182638 62 279 3.5 10.4 0.00 0.00 0.00 27 1027.4
20260503182139 62 309 4.3 11.3 0.00 0.00 0.00 26 1027.6
20260503181638 62 306 5.2 11.3 0.00 0.00 0.00 27 1027.7
20260503181138 61 348 2.6 10.4 0.00 0.00 0.00 27 1027.7
20260503180638 61 296 2.6 5.2 0.00 0.00 0.00 27 1027.7
20260503180138 61 266 3.5 13.9 0.00 0.00 0.00 27 1027.7
20260503175637 61 134 3.5 13.9 0.00 0.00 0.00 27 1027.9
20260503175139 61 298 3.5 9.6 0.00 0.00 0.00 28 1027.8
20260503174632 61 279 4.3 12.2 0.00 0.00 0.00 29 1027.9
20260503174126 60 286 4.3 12.2 0.00 0.00 0.00 28 1027.9
20260503173620 60 238 3.5 9.6 0.00 0.00 0.00 31 1028.1
20260503173608 60 237 2.6 8.7 0.00 0.00 0.00 33 1028.2
20260503172608 59 281 3.5 11.3 0.00 0.00 0.00 33 1028.3
20260503172103 59 292 3.5 11.3 0.00 0.00 0.00 32 1028.3
20260503171556 59 205 3.5 8.7 0.00 0.00 0.00 34 1028.3
20260503171050 58 269 4.3 9.6 0.00 0.00 0.00 34 1028.3
20260503170804 58 222 3.5 9.6 0.00 0.00 0.00 35 1028.4
20260503170255 58 277 3.5 7.8 0.00 0.00 0.00 36 1028.4
20260503150823 49 350 2.6 6.1 0.00 0.00 0.00 55 1028.9
20260503150316 48 283 1.7 6.1 0.00 0.00 0.00 56 1028.9
20260503140200 42 102 1.7 3.5 0.00 0.00 0.00 74 1028.9
20260503131100 39 105 4.3 7.0 0.00 0.00 0.00 80 1029.4
20260503130554 39 82 4.3 7.0 0.00 0.00 0.00 80 1029.4
20260503110712 39 91 3.5 6.1 0.00 0.00 0.00 76 1028.8
20260503100151 39 101 1.7 3.5 0.00 0.00 0.00 74 1029.1
20260503081427 40 77 5.2 11.3 0.00 0.00 0.00 72 1029.3
20260503080926 41 100 5.2 11.3 0.00 0.00 0.00 72 1029.4
20260503080419 41 112 5.2 8.7 0.00 0.00 0.00 72 1029.4
20260503072355 42 117 5.2 8.7 0.00 0.01 0.00 71 1029.8
20260503071854 42 96 4.3 8.7 0.00 0.01 0.00 70 1029.8
20260503071616 42 112 4.3 9.6 0.00 0.01 0.00 70 1029.8
20260503070855 42 77 5.2 9.6 0.00 0.01 0.00 69 1029.9
20260503070355 42 104 4.3 7.8 0.00 0.01 0.00 69 1029.9
20260503060330 43 89 3.5 6.1 0.00 0.01 0.00 68 1029.8
20260503054824 44 132 1.7 4.3 0.00 0.01 0.01 66 1029.8
20260503054324 44 96 1.7 5.2 0.00 0.01 0.01 66 1029.8
20260503053825 44 107 2.6 7.0 0.00 0.01 0.01 66 1029.8
20260503053324 44 102 2.6 7.0 0.00 0.01 0.01 65 1029.7
20260503053045 44 82 3.5 7.8 0.00 0.01 0.01 64 1029.7
20260503052321 44 139 3.5 7.8 0.00 0.01 0.01 64 1029.7
20260503051821 44 99 3.5 7.0 0.00 0.01 0.01 63 1029.7
20260503051320 45 101 3.5 7.8 0.00 0.01 0.01 63 1029.6
20260503050820 45 115 3.5 7.8 0.00 0.01 0.01 62 1029.7
20260503050321 45 87 3.5 7.8 0.00 0.01 0.01 62 1029.6
20260503045821 45 82 4.3 7.8 0.00 0.01 0.01 61 1029.6
20260503045316 45 111 5.2 9.6 0.00 0.01 0.01 61 1029.6
20260503044817 45 99 5.2 9.6 0.00 0.01 0.01 61 1029.6
20260503044317 46 98 4.3 8.7 0.00 0.01 0.01 61 1029.6
20260503043817 46 159 3.5 7.8 0.00 0.01 0.01 61 1029.6
20260503043317 46 117 2.6 7.8 0.00 0.01 0.01 60 1029.6
20260503042817 46 96 1.7 6.1 0.00 0.01 0.01 60 1029.6
20260503042317 47 109 2.6 10.4 0.00 0.01 0.01 61 1029.6
20260503041817 47 172 2.6 10.4 0.00 0.01 0.01 60 1029.6
20260503041317 47 142 3.5 9.6 0.00 0.01 0.01 59 1029.4
20260503041034 47 150 4.3 9.6 0.00 0.01 0.01 57 1029.6
20260503040313 48 180 3.5 7.8 0.00 0.01 0.01 52 1029.4
20260503035812 48 126 1.7 7.8 0.00 0.01 0.01 47 1029.4
20260503035312 49 153 1.7 4.3 0.00 0.01 0.01 44 1029.3
20260503035031 49 115 1.7 4.3 0.00 0.01 0.01 44 1029.2
20260503034313 49 135 1.7 7.8 0.00 0.01 0.01 46 1029.2
20260503033812 49 103 2.6 8.7 0.00 0.01 0.01 46 1029.1
20260503033312 49 136 3.5 8.7 0.00 0.01 0.01 48 1028.9
20260503032813 50 153 5.2 11.3 0.00 0.01 0.01 48 1028.8
20260503032305 50 188 6.1 12.2 0.00 0.01 0.01 47 1028.8
20260503031759 50 196 6.1 13.0 0.00 0.01 0.01 46 1028.7
20260503031254 51 167 3.5 13.0 0.00 0.01 0.01 40 1028.7
20260503031014 51 175 2.6 6.1 0.00 0.01 0.01 38 1028.6
20260503030241 51 148 2.6 6.1 0.00 0.01 0.01 36 1028.4
20260503025958 51 167 2.6 6.1 0.00 0.01 0.01 36 1028.3
20260503025230 52 146 2.6 7.0 0.00 0.01 0.01 36 1028.2
20260503024724 52 150 3.5 7.0 0.00 0.01 0.01 35 1028.2
20260503024217 53 148 3.5 6.1 0.00 0.01 0.01 35 1028.1
20260503023712 53 119 3.5 6.1 0.00 0.01 0.01 35 1027.9
20260503023434 53 143 2.6 6.1 0.00 0.01 0.01 35 1027.9
20260503022708 54 144 2.6 7.0 0.00 0.01 0.01 34 1027.9
20260503022208 54 156 3.5 7.0 0.00 0.01 0.01 33 1027.9
20260503021708 55 144 2.6 6.1 0.00 0.01 0.01 32 1027.9
20260503021430 55 142 0.9 3.5 0.00 0.01 0.01 32 1027.9
20260503020706 56 213 0.9 4.3 0.00 0.01 0.01 29 1027.8
20260503020206 56 239 1.7 4.3 0.00 0.01 0.01 30 1027.8
20260503015704 56 93 2.6 7.8 0.00 0.01 0.01 30 1027.8
20260503015202 57 74 4.3 12.2 0.00 0.01 0.01 30 1027.8
20260503014702 57 163 5.2 12.2 0.00 0.01 0.01 29 1027.8
20260503014203 58 128 5.2 12.2 0.00 0.01 0.01 29 1027.8
20260503013927 58 124 5.2 13.0 0.00 0.01 0.01 28 1027.7
20260503013427 59 81 6.1 13.0 0.00 0.01 0.01 27 1027.6
20260503012702 60 171 6.1 14.8 0.00 0.01 0.01 26 1027.6
20260503012202 60 151 7.0 14.8 0.00 0.01 0.01 25 1027.6
20260503011702 61 186 6.1 10.4 0.00 0.01 0.01 25 1027.4
20260503011426 61 232 5.2 9.6 0.00 0.01 0.01 25 1027.4
20260503010655 62 246 5.2 9.6 0.00 0.01 0.01 25 1027.3
20260503010150 62 252 5.2 9.6 0.00 0.01 0.01 24 1027.3
20260503005644 62 272 4.3 9.6 0.00 0.01 0.01 25 1027.3
20260503005403 62 198 2.6 7.8 0.00 0.01 0.01 24 1027.3
20260503004631 62 184 2.6 7.8 0.00 0.01 0.01 24 1027.3
20260503004126 62 281 1.7 7.8 0.00 0.01 0.01 23 1027.3
20260503003620 62 338 2.6 8.7 0.00 0.01 0.01 23 1027.3
20260503003555 62 180 4.3 11.3 0.00 0.01 0.01 23 1027.3
20260503002828 61 240 4.3 11.3 0.00 0.02 0.01 24 1027.2
20260503002102 62 178 5.2 11.3 0.00 0.02 0.01 24 1027.2
20260503001556 62 186 3.5 11.3 0.00 0.02 0.01 23 1027.2
20260503001050 62 250 2.6 7.8 0.00 0.02 0.01 23 1027.3
20260503000544 62 236 3.5 8.7 0.00 0.02 0.01 23 1027.3
20260503000038 62 182 2.6 8.7 0.00 0.02 0.01 24 1027.3
20260503000014 62 279 2.6 6.1 0.00 0.03 0.01 23 1027.3
20260502235245 62 223 1.7 7.8 0.00 0.04 0.01 24 1027.3
20260502234519 63 210 2.6 8.7 0.00 0.05 0.01 23 1027.3
20260502234014 63 323 4.3 10.4 0.00 0.07 0.01 22 1027.3
20260502233508 63 233 4.3 10.4 0.00 0.07 0.01 24 1027.3
20260502233002 63 170 2.6 7.8 0.00 0.08 0.01 23 1027.3
20260502232456 64 90 2.6 7.0 0.00 0.09 0.01 24 1027.3